Location: Aciu?a
(46.2833°N, 22.4500°E)
Time: 09:16:27
(UTC+00:00)

Cosmos 1455 - Pass Details

Date: 02 June 2022
Orbit: 492 x 514 km, 82.5° (Epoch: 02 July)

Event Time Altitude Azimuth Distance (km) Brightness Sun altitude
Rises 23:52:57 0° 344° (NNW) 2,585 6.6 -18.8°
Reaches altitude 10° 23:55:08 10° 338° (NNW) 1,699 5.5 -18.7°
Maximum altitude 23:58:39 42° 266° (W) 719 2.7 -18.4°
Enters shadow 23:59:02 40° 248° (WSW) 738 2.6 -18.4°
